CES7866 UHWW-ZUTF

Flight info

Callsign CES7866
Flight time N/A
Altitude 35000
Route SANAR A840 GALDI B356 KICHA L744 WASAN B332 SANKO A326 MAKNO W5 GUMED V42 UKMEV V163 NOBUP W4 LIMGI W152 BUBDU W276 ANRUG W279 ONEBA G212 BUPMI
Aircraft B738/L-SDE3FGHIRWY/LB1

Departure

Time 2026-04-28 07:42
Airport Vladivostok International Airport (UHWW)

Arrival

Time N/A
Airport Chengdu Tianfu International Airport (ZUTF)
Time Latitude Longitude Altitude Speed Heading
2026-04-28 06:54 43.39832 132.16748 49 ft 0 kts 151°
2026-04-28 07:19 43.39835 132.16746 49 ft 2 kts 151°
2026-04-28 07:19 43.39848 132.16737 48 ft 2 kts 150°
2026-04-28 07:19 43.39861 132.16727 48 ft 2 kts 150°
2026-04-28 07:19 43.39874 132.16717 48 ft 2 kts 154°
2026-04-28 07:20 43.39888 132.16711 48 ft 2 kts 175°
2026-04-28 07:20 43.39903 132.16713 47 ft 2 kts 192°
2026-04-28 07:20 43.39917 132.16719 47 ft 2 kts 208°
2026-04-28 07:20 43.39930 132.16731 47 ft 2 kts 225°
2026-04-28 07:21 43.39938 132.16745 47 ft 0 kts 239°
2026-04-28 07:21 43.39941 132.16753 47 ft 0 kts 242°
2026-04-28 07:23 43.39939 132.16750 47 ft 1 kts 241°
2026-04-28 07:23 43.39930 132.16724 47 ft 4 kts 241°
2026-04-28 07:23 43.39912 132.16679 47 ft 6 kts 241°
2026-04-28 07:24 43.39890 132.16625 48 ft 6 kts 240°
2026-04-28 07:24 43.39867 132.16569 50 ft 6 kts 241°
2026-04-28 07:24 43.39845 132.16516 51 ft 6 kts 241°
2026-04-28 07:24 43.39824 132.16464 53 ft 6 kts 241°
2026-04-28 07:25 43.39805 132.16415 55 ft 5 kts 241°
2026-04-28 07:25 43.39788 132.16374 56 ft 4 kts 241°
2026-04-28 07:25 43.39773 132.16338 57 ft 4 kts 241°
2026-04-28 07:25 43.39759 132.16303 59 ft 4 kts 241°
2026-04-28 07:26 43.39751 132.16252 60 ft 6 kts 276°
2026-04-28 07:26 43.39791 132.16185 60 ft 12 kts 328°
2026-04-28 07:26 43.39866 132.16127 58 ft 11 kts 326°
2026-04-28 07:26 43.39883 132.16026 58 ft 13 kts 240°
2026-04-28 07:27 43.39841 132.15924 60 ft 11 kts 241°
2026-04-28 07:27 43.39807 132.15842 62 ft 9 kts 241°
2026-04-28 07:27 43.39774 132.15758 63 ft 11 kts 241°
2026-04-28 07:27 43.39728 132.15646 63 ft 14 kts 241°
2026-04-28 07:28 43.39680 132.15524 65 ft 14 kts 241°
2026-04-28 07:28 43.39630 132.15402 64 ft 15 kts 241°
2026-04-28 07:28 43.39578 132.15273 62 ft 16 kts 241°
2026-04-28 07:28 43.39519 132.15128 61 ft 18 kts 241°
2026-04-28 07:29 43.39459 132.14980 60 ft 16 kts 240°
2026-04-28 07:29 43.39409 132.14854 58 ft 14 kts 241°
2026-04-28 07:29 43.39361 132.14737 56 ft 13 kts 241°
2026-04-28 07:29 43.39318 132.14629 55 ft 12 kts 240°
2026-04-28 07:30 43.39277 132.14528 55 ft 13 kts 241°
2026-04-28 07:30 43.39227 132.14403 53 ft 16 kts 241°
2026-04-28 07:30 43.39162 132.14243 48 ft 21 kts 241°
2026-04-28 07:30 43.39086 132.14056 44 ft 20 kts 240°
2026-04-28 07:31 43.39020 132.13892 38 ft 18 kts 241°
2026-04-28 07:31 43.38959 132.13742 35 ft 17 kts 241°
2026-04-28 07:31 43.38904 132.13603 31 ft 15 kts 241°
2026-04-28 07:31 43.38853 132.13478 29 ft 14 kts 241°
2026-04-28 07:32 43.38811 132.13374 29 ft 10 kts 241°
2026-04-28 07:32 43.38783 132.13300 29 ft 7 kts 248°
2026-04-28 07:32 43.38776 132.13238 29 ft 7 kts 277°
2026-04-28 07:32 43.38812 132.13174 29 ft 8 kts 327°
2026-04-28 07:33 43.38829 132.13161 29 ft 0 kts 329°
2026-04-28 07:40 43.38831 132.13159 29 ft 2 kts 319°
2026-04-28 07:41 43.38862 132.13133 29 ft 8 kts 332°
2026-04-28 07:41 43.38933 132.13112 29 ft 12 kts 14°
2026-04-28 07:41 43.38993 132.13225 29 ft 17 kts 64°
2026-04-28 07:41 43.39061 132.13393 29 ft 31 kts 60°
2026-04-28 07:42 43.39346 132.14092 41 ft 131 kts 60°
2026-04-28 07:42 43.39905 132.15431 357 ft 182 kts 60°
2026-04-28 07:42 43.40557 132.16992 1371 ft 198 kts 62°
2026-04-28 07:42 43.41175 132.18588 2630 ft 191 kts 62°
2026-04-28 07:43 43.41828 132.20248 3283 ft 212 kts 61°
2026-04-28 07:43 43.42548 132.22057 4103 ft 223 kts 61°
2026-04-28 07:43 43.43298 132.23930 5041 ft 229 kts 61°
2026-04-28 07:43 43.44069 132.25845 5990 ft 234 kts 61°
2026-04-28 07:44 43.44857 132.27808 6942 ft 238 kts 61°
2026-04-28 07:44 43.45650 132.29778 7872 ft 241 kts 61°
2026-04-28 07:44 43.46464 132.31798 8786 ft 244 kts 61°
2026-04-28 07:44 43.47273 132.33806 9664 ft 247 kts 60°
2026-04-28 07:45 43.48299 132.35713 10485 ft 252 kts 39°
2026-04-28 07:45 43.49872 132.36627 11286 ft 255 kts
2026-04-28 07:45 43.51576 132.36095 12094 ft 257 kts 329°
2026-04-28 07:45 43.53075 132.34761 12948 ft 258 kts 328°
2026-04-28 07:46 43.54630 132.33543 13671 ft 263 kts 331°
2026-04-28 07:46 43.56181 132.32246 14428 ft 266 kts 319°
2026-04-28 07:46 43.57254 132.30170 15102 ft 271 kts 287°
2026-04-28 07:46 43.57312 132.27617 15832 ft 272 kts 253°
2026-04-28 07:47 43.56464 132.25302 16570 ft 273 kts 238°
2026-04-28 07:47 43.55518 132.23041 17224 ft 278 kts 242°
2026-04-28 07:47 43.54618 132.20671 17898 ft 281 kts 242°
2026-04-28 07:47 43.53711 132.18283 18492 ft 288 kts 241°
2026-04-28 07:48 43.52702 132.15881 19026 ft 297 kts 238°
2026-04-28 07:48 43.51585 132.13367 19161 ft 321 kts 238°
2026-04-28 07:48 43.50390 132.10651 19381 ft 340 kts 239°
2026-04-28 07:48 43.49128 132.07777 19488 ft 362 kts 239°
2026-04-28 07:49 43.47786 132.04729 19562 ft 383 kts 239°
2026-04-28 07:49 43.46370 132.01512 19613 ft 404 kts 239°
2026-04-28 07:49 43.44891 131.98151 19664 ft 422 kts 239°
2026-04-28 07:49 43.43343 131.94630 19735 ft 439 kts 239°
2026-04-28 07:50 43.41746 131.90991 20114 ft 447 kts 239°
2026-04-28 07:50 43.40145 131.87332 20560 ft 453 kts 239°
2026-04-28 07:50 43.38527 131.83629 21053 ft 457 kts 239°
2026-04-28 07:50 43.36886 131.79881 21543 ft 460 kts 239°
2026-04-28 07:51 43.35233 131.76115 22024 ft 463 kts 239°
2026-04-28 07:51 43.33556 131.72304 22493 ft 467 kts 239°
2026-04-28 07:51 43.31872 131.68480 22948 ft 470 kts 239°
2026-04-28 07:51 43.30183 131.64651 23385 ft 473 kts 239°
2026-04-28 07:52 43.28491 131.60825 23807 ft 476 kts 239°
2026-04-28 07:52 43.26732 131.56923 24217 ft 479 kts 237°
2026-04-28 07:52 43.24822 131.53212 24610 ft 481 kts 232°
2026-04-28 07:52 43.22575 131.49803 24976 ft 484 kts 223°
2026-04-28 07:53 43.19955 131.46936 25362 ft 486 kts 216°
2026-04-28 07:53 43.17145 131.44379 25762 ft 488 kts 211°
2026-04-28 07:53 43.14093 131.42307 26182 ft 489 kts 201°
2026-04-28 07:53 43.10874 131.40881 26651 ft 488 kts 196°
2026-04-28 07:54 43.07619 131.39630 27107 ft 488 kts 196°
2026-04-28 07:54 43.04353 131.38333 27569 ft 488 kts 197°
2026-04-28 07:54 43.01115 131.37028 28029 ft 487 kts 197°
2026-04-28 07:54 42.97857 131.35725 28490 ft 486 kts 197°
2026-04-28 07:55 42.94645 131.34447 28941 ft 485 kts 196°
2026-04-28 07:55 42.91425 131.33170 29388 ft 484 kts 196°
2026-04-28 07:55 42.88208 131.31894 29826 ft 483 kts 196°
2026-04-28 07:55 42.84981 131.30617 30259 ft 483 kts 196°
2026-04-28 07:56 42.81773 131.29350 30683 ft 482 kts 196°
2026-04-28 07:56 42.78569 131.28087 31100 ft 481 kts 196°
2026-04-28 07:56 42.75337 131.26814 31513 ft 480 kts 196°
2026-04-28 07:56 42.72141 131.25557 31916 ft 479 kts 196°
2026-04-28 07:57 42.68956 131.24306 32310 ft 478 kts 196°
2026-04-28 07:57 42.65754 131.23048 32717 ft 477 kts 196°
2026-04-28 07:57 42.62579 131.21802 33113 ft 477 kts 196°
2026-04-28 07:57 42.59458 131.20296 33485 ft 476 kts 203°
2026-04-28 07:58 42.56501 131.18349 33874 ft 475 kts 208°
2026-04-28 07:58 42.53714 131.15991 34227 ft 474 kts 216°
2026-04-28 07:58 42.51113 131.13246 34612 ft 473 kts 219°
2026-04-28 07:58 42.48547 131.10411 34943 ft 473 kts 219°
2026-04-28 07:59 42.43462 131.04864 35001 ft 467 kts 219°
2026-04-28 07:59 42.38438 130.99405 35002 ft 463 kts 219°
2026-04-28 08:00 42.33448 130.93983 35001 ft 466 kts 219°
2026-04-28 08:00 42.28375 130.88480 35002 ft 467 kts 219°
2026-04-28 08:01 42.23328 130.83019 35001 ft 465 kts 219°
2026-04-28 08:01 42.18274 130.77547 35001 ft 465 kts 219°
2026-04-28 08:02 42.12426 130.71175 35001 ft 466 kts 219°
2026-04-28 08:02 42.08233 130.66620 35001 ft 466 kts 219°
2026-04-28 08:03 42.03165 130.61128 35001 ft 466 kts 219°
2026-04-28 08:03 41.98156 130.55711 35001 ft 466 kts 219°
2026-04-28 08:04 41.93111 130.50267 35001 ft 466 kts 219°
2026-04-28 08:04 41.88044 130.44812 35001 ft 466 kts 219°
2026-04-28 08:05 41.82997 130.39389 35001 ft 466 kts 219°
2026-04-28 08:05 41.77974 130.34003 35001 ft 466 kts 218°
2026-04-28 08:06 41.72911 130.28586 35001 ft 466 kts 218°
2026-04-28 08:06 41.67868 130.23202 35001 ft 466 kts 218°
2026-04-28 08:07 41.62800 130.17806 35001 ft 466 kts 218°
2026-04-28 08:07 41.57708 130.12393 35001 ft 466 kts 218°
2026-04-28 08:08 41.52651 130.07028 35001 ft 466 kts 218°
2026-04-28 08:08 41.47601 130.01683 35001 ft 466 kts 218°
2026-04-28 08:09 41.42530 129.96326 35001 ft 466 kts 218°
2026-04-28 08:09 41.37455 129.90974 35001 ft 466 kts 218°
2026-04-28 08:10 41.32359 129.85614 35001 ft 466 kts 218°
2026-04-28 08:10 41.27281 129.80283 35001 ft 466 kts 218°
2026-04-28 08:11 41.22198 129.74965 35003 ft 466 kts 218°
2026-04-28 08:11 41.17128 129.69667 35000 ft 466 kts 218°
2026-04-28 08:12 41.11179 129.63454 35001 ft 466 kts 218°
2026-04-28 08:12 41.06944 129.59041 35000 ft 466 kts 218°
2026-04-28 08:13 41.01873 129.53769 35000 ft 466 kts 218°
2026-04-28 08:13 40.96765 129.48471 35000 ft 466 kts 218°
2026-04-28 08:14 40.91663 129.43188 35000 ft 466 kts 218°
2026-04-28 08:14 40.86586 129.37944 35001 ft 466 kts 218°
2026-04-28 08:15 40.81481 129.32680 35001 ft 466 kts 218°
2026-04-28 08:15 40.76390 129.27441 35001 ft 466 kts 218°
2026-04-28 08:16 40.71320 129.22101 34999 ft 466 kts 222°
2026-04-28 08:16 40.67027 129.15790 34999 ft 466 kts 235°
2026-04-28 08:17 40.63675 129.08478 35002 ft 466 kts 240°
2026-04-28 08:17 40.60410 129.01167 35000 ft 466 kts 239°
2026-04-28 08:18 40.57120 128.93842 35001 ft 466 kts 239°
2026-04-28 08:18 40.53841 128.86534 35000 ft 466 kts 239°
2026-04-28 08:19 40.50560 128.79234 35000 ft 466 kts 239°
2026-04-28 08:19 40.47265 128.71913 35000 ft 466 kts 239°
2026-04-28 08:20 40.43962 128.64587 35000 ft 466 kts 239°
2026-04-28 08:20 40.40680 128.57326 35000 ft 466 kts 239°
2026-04-28 08:21 40.37372 128.50023 35001 ft 466 kts 239°
2026-04-28 08:21 40.34059 128.42723 35001 ft 466 kts 239°
2026-04-28 08:22 40.30753 128.35457 35001 ft 466 kts 239°
2026-04-28 08:22 40.27431 128.28174 35001 ft 466 kts 239°
2026-04-28 08:23 40.24113 128.20914 35001 ft 466 kts 239°
2026-04-28 08:23 40.20787 128.13655 35001 ft 466 kts 239°
2026-04-28 08:24 40.17468 128.06430 35001 ft 466 kts 239°
2026-04-28 08:24 40.14129 127.99177 35001 ft 466 kts 239°
2026-04-28 08:25 40.10788 127.91935 35001 ft 466 kts 239°
2026-04-28 08:26 40.05766 127.81085 35001 ft 466 kts 239°
2026-04-28 08:26 40.02424 127.73884 35000 ft 466 kts 239°
2026-04-28 08:27 39.99065 127.66663 35000 ft 466 kts 239°
2026-04-28 08:27 39.95712 127.59471 35001 ft 466 kts 239°
2026-04-28 08:28 39.92353 127.52285 35001 ft 466 kts 239°
2026-04-28 08:28 39.89093 127.45016 35001 ft 466 kts 240°
2026-04-28 08:29 39.85885 127.37733 35001 ft 466 kts 240°
2026-04-28 08:29 39.82664 127.30475 35001 ft 466 kts 240°
2026-04-28 08:30 39.79432 127.23212 35001 ft 466 kts 240°
2026-04-28 08:30 39.76183 127.15931 35001 ft 466 kts 240°
2026-04-28 08:31 39.73609 127.08264 35000 ft 465 kts 255°
2026-04-28 08:31 39.72845 126.99960 35003 ft 466 kts 270°
2026-04-28 08:32 39.72947 126.91573 35001 ft 466 kts 270°
2026-04-28 08:32 39.72963 126.83181 35000 ft 466 kts 270°
2026-04-28 08:33 39.72981 126.74792 35000 ft 466 kts 270°
2026-04-28 08:33 39.72991 126.69233 35000 ft 466 kts 270°